IW2NIA-3 Weather Reports


Display with metric or nautical units.
time (UTC)temp
F
wind
direction
speed
MPH
gust
MPH
rain 1hr
in
rain 24hr
in
rain mn
in
humidity
%
barometer
mb
20260902064841 74 134 3.0 5.0 0.00 0.00 0.00 78 1018.8
20260902063336 73 96 4.0 6.0 0.00 0.00 0.00 80 1018.7
20260902061831 72 96 3.0 4.0 0.00 0.00 0.00 81 1018.7
20260902060345 71 88 4.0 6.0 0.00 0.00 0.00 84 1018.7
20260902054842 70 74 1.0 4.0 0.00 0.00 0.00 85 1018.4
20260902053332 69 63 1.0 3.0 0.00 0.00 0.00 86 1018.5
20260902051847 69 71 0.0 1.0 0.00 0.00 0.00 86 1018.3
20260902050343 69 69 0.0 0.0 0.00 0.00 0.00 86 1018.3
20260902044847 69 69 0.0 3.0 0.00 0.00 0.00 86 1018.3
20260902043338 69 69 2.0 4.0 0.00 0.00 0.00 85 1018.3
20260902041832 69 71 2.0 3.0 0.00 0.00 0.00 85 1018.0
20260902040349 69 65 0.0 3.0 0.00 0.00 0.00 86 1017.9
20260902034841 69 65 2.0 3.0 0.00 0.00 0.00 85 1017.9
20260902033331 69 66 2.0 4.0 0.00 0.00 0.00 85 1018.1
20260902031843 69 59 1.0 4.0 0.00 0.00 0.00 85 1018.1
20260902030337 69 61 0.0 1.0 0.00 0.00 0.00 84 1018.2
20260902024836 70 61 2.0 4.0 0.00 0.00 0.00 84 1018.1
20260902023331 70 62 0.0 0.0 0.00 0.00 0.00 84 1018.1
20260902021847 70 69 0.0 0.0 0.00 0.00 0.00 84 1018.0
20260902020342 70 69 2.0 5.0 0.00 0.00 0.00 84 1018.0
20260902014838 70 70 2.0 3.0 0.00 0.00 0.00 84 1017.9
20260901233331 71 65 0.0 0.0 0.00 0.00 0.00 82 1017.9
20260901231841 71 65 0.0 0.0 0.00 0.00 0.00 82 1018.0
20260901230349 71 65 0.0 0.0 0.00 0.00 0.00 82 1018.1
20260901224837 72 65 0.0 0.0 0.00 0.00 0.00 81 1018.0
20260901223335 72 65 0.0 0.0 0.00 0.00 0.00 81 1018.0
20260901221835 72 65 0.0 1.0 0.00 0.00 0.00 82 1018.1
20260901220331 72 65 0.0 2.0 0.00 0.00 0.00 81 1017.9
20260901214843 72 65 0.0 0.0 0.00 0.00 0.00 80 1017.9
20260901213331 72 65 2.0 3.0 0.00 0.00 0.00 80 1017.9
20260901211845 73 65 2.0 3.0 0.00 0.00 0.00 79 1017.8
20260901210328 73 65 2.0 3.0 0.00 0.00 0.00 79 1017.8
20260901204831 74 65 2.0 3.0 0.00 0.00 0.00 78 1017.8
20260901203341 74 65 1.0 3.0 0.00 0.00 0.00 77 1017.9
20260901201834 74 136 0.0 0.0 0.00 0.00 0.00 78 1017.8
20260901194833 75 136 0.0 0.0 0.00 0.00 0.00 77 1017.6
20260901193329 75 136 0.0 0.0 0.00 0.00 0.00 77 1017.4
20260901191829 76 136 0.0 0.0 0.00 0.00 0.00 76 1017.3
20260901190339 77 171 0.0 0.0 0.00 0.00 0.00 76 1017.1
20260901184834 77 171 0.0 0.0 0.00 0.00 0.00 75 1016.9
20260901183332 78 171 0.0 0.0 0.00 0.00 0.00 74 1016.9
20260901181843 78 171 0.0 0.0 0.00 0.00 0.00 72 1016.7
20260901180338 80 171 0.0 0.0 0.00 0.00 0.00 69 1016.6
20260901174833 81 171 1.0 2.0 0.00 0.00 0.00 65 1016.6
20260901173337 81 171 0.0 2.0 0.00 0.00 0.00 63 1016.5
20260901171828 82 221 0.0 2.0 0.00 0.00 0.00 61 1016.3
20260901170340 82 221 0.0 2.0 0.00 0.00 0.00 60 1016.3
20260901164837 83 222 1.0 4.0 0.00 0.00 0.00 60 1016.4
20260901163346 84 223 1.0 3.0 0.00 0.00 0.00 57 1016.4
20260901161843 85 223 2.0 5.0 0.00 0.00 0.00 56 1016.5
20260901160341 85 209 3.0 5.0 0.00 0.00 0.00 55 1016.5
20260901154836 84 111 3.0 5.0 0.00 0.00 0.00 57 1016.5
20260901153333 85 154 1.0 6.0 0.00 0.00 0.00 57 1016.5
20260901151832 85 235 3.0 6.0 0.00 0.00 0.00 56 1016.5
20260901150344 85 234 3.0 5.0 0.00 0.00 0.00 54 1016.6
20260901144830 85 251 3.0 10.0 0.00 0.00 0.00 56 1016.8
20260901143326 85 126 2.0 7.0 0.00 0.00 0.00 55 1016.8
20260901141840 85 314 1.0 10.0 0.00 0.00 0.00 60 1016.9
20260901140348 85 209 3.0 7.0 0.00 0.00 0.00 56 1017.0
20260901134827 85 134 2.0 7.0 0.00 0.00 0.00 57 1017.0
20260901133339 84 160 2.0 7.0 0.00 0.00 0.00 58 1017.0
20260901131830 83 97 4.0 9.0 0.00 0.00 0.00 58 1017.3
20260901130342 83 135 5.0 9.0 0.00 0.00 0.00 56 1017.3
20260901124832 83 214 2.0 10.0 0.00 0.00 0.00 55 1017.6
20260901123346 82 157 0.0 3.0 0.00 0.00 0.00 61 1017.7
20260901121840 82 228 1.0 4.0 0.00 0.00 0.00 58 1018.0
20260901120330 81 160 0.0 5.0 0.00 0.00 0.00 60 1018.0
20260901114829 80 218 2.0 6.0 0.00 0.00 0.00 62 1017.9
20260901113328 81 148 3.0 6.0 0.00 0.00 0.00 62 1017.9
20260901111848 80 181 3.0 6.0 0.00 0.00 0.00 63 1018.1
20260901110346 80 243 3.0 12.0 0.00 0.00 0.00 62 1018.3
20260901104840 79 257 5.0 10.0 0.00 0.00 0.00 65 1018.2
20260901103348 80 180 1.0 10.0 0.00 0.00 0.00 65 1018.2
20260901101842 80 182 2.0 10.0 0.00 0.00 0.00 65 1018.2
20260901100325 79 219 3.0 14.0 0.00 0.00 0.00 65 1018.4
20260901094841 79 221 3.0 9.0 0.00 0.00 0.00 66 1018.4
20260901093334 78 192 3.0 6.0 0.00 0.00 0.00 73 1018.4
20260901091831 77 198 7.0 11.0 0.00 0.00 0.00 74 1018.4
20260901090345 77 208 2.0 9.0 0.00 0.00 0.00 77 1018.4
20260901084838 77 194 2.0 8.0 0.00 0.00 0.00 77 1018.3
20260901083335 76 184 1.0 7.0 0.00 0.00 0.00 77 1018.3
20260901082001 76 205 4.0 7.0 0.00 0.00 0.00 78 1018.2
20260901080344 76 182 2.0 11.0 0.00 0.00 0.00 77 1018.1
20260901074847 75 121 7.0 10.0 0.00 0.00 0.00 78 1017.9
20260901073326 74 106 4.0 9.0 0.00 0.00 0.00 79 1017.9
20260901071837 74 144 4.0 7.0 0.00 0.00 0.00 80 1017.9
20260901070347 72 132 4.0 5.0 0.00 0.00 0.00 81 1017.8